Regional Weather Roundup
Issued by NWS

Home | Current Version | Previous Version | Text Only | Print | Product List | Glossary On
Versions: 1 2 3 4 5 6 7 8 9 10 11 12 13 14 15 16 17 18 19 20 21 22 23 24 25 26 27 28 29 30 31 32 33 34 35 36 37 38 39 40 41 42 43 44 45 46 47 48 49 50
000
ASUS43 KLOT 271400
RWRIL

ILLINOIS REGIONAL WEATHER ROUNDUP
NATIONAL WEATHER SERVICE CHICAGO/ROMEOVILLE IL
800 AM CST FRI FEB 27 2015

NOTE: "FAIR" INDICATES FEW OR NO CLOUDS BELOW 12,000 FEET WITH NO
SIGNIFICANT WEATHER AND/OR OBSTRUCTIONS TO VISIBILITY.

* THESE STATIONS ARE NOT UNDER NWS QUALITY CONTROL. THEY ALSO MAY NOT
  REPORT WEATHER SUCH AS PRECIPITATION OR FOG.

ILZ001-002-007-009-015-016-024-271500-
NORTHWEST ILLINOIS

CITY           SKY/WX    TMP DP  RH WIND       PRES   REMARKS
MOLINE         PTSUNNY   -9 -13  83 W8        30.62R WCI -25
STERLING*      MOSUNNY   -8 -11  84 W3        30.59R
$$

ILZ003-004-008-010-011-017-018-271500-
NORTH CENTRAL ILLINOIS

CITY           SKY/WX    TMP DP  RH WIND       PRES   REMARKS
ROCKFORD       SUNNY    -11 -15  82 CALM      30.58R
DE KALB*       SUNNY     -7 -12  76 W8        30.55R WCI -22
$$

ILZ005-006-012>014-019>023-271500-
NORTHEAST ILLINOIS

CITY           SKY/WX    TMP DP  RH WIND       PRES   REMARKS
CHICAGO-OHARE  MOSUNNY    1  -9  62 NW8       30.55R WCI -13
CHICAGO-MIDWAY MOSUNNY    5  -4  66 NW6       30.56R WCI  -6
AURORA         SUNNY     -8 -14  74 W7        30.57R WCI -23
WAUKEGAN       SUNNY      1  -9  62 W8        30.53R WCI -13
DUPAGE AIRPORT SUNNY      1  -8  66 NW9       30.54R WCI -14
WHEELING       SUNNY      3  -9  57 NW8       30.57R WCI -10
NORTHERLY ISL    N/A     10  -2  58 W6          N/A  WCI   1
$$

LMZ740>746-271500-
SOUTHERN LAKE MICHIGAN

STATION/POSITION SKY/WX   TEMP    WIND        PRES    VSBY  WAVE
                          AIR SEA DIR/SP/G                  HT/PER
                          (F)     (DEG/KT/KT) (MB)    (MI)  (FT/S)
WAUKEGAN HARBOR             3     290/ 10/ 16   N/A
HARRISON CRIB               6     290/ 11/ 12   N/A
BURNHAM HARBOR              9     280/  7/  9   N/A
CALUMET HARBOR              6     260/  4/  8 1032.9R
MICHIGAN CITY               5     170/  5/  6   N/A
$$

ILZ025>027-034>036-040-047-049-050-058-095>099-271500-
WEST-CENTRAL ILLINOIS

CITY           SKY/WX    TMP DP  RH WIND       PRES   REMARKS
QUINCY         MOSUNNY   -4 -10  75 W5        30.64R WCI -15
$$

ILZ028>032-037-038-041>044-048-051>054-059>061-271500-
CENTRAL ILLINOIS

CITY           SKY/WX    TMP DP  RH WIND       PRES   REMARKS
DECATUR        MOSUNNY    0  -7  72 NW7       30.61R HAZE    WCI -13
PEORIA         SUNNY     -3 -11  68 NW3       30.62R
SPRINGFIELD    MOSUNNY   -7 -12  79 SW7       30.64R WCI -21
TAYLORVILLE    NOT AVBL
$$

ILZ033-039-045-046-055>057-062-063-271500-
EAST-CENTRAL ILLINOIS

CITY           SKY/WX    TMP DP  RH WIND       PRES   REMARKS
CHAMPAIGN      MOSUNNY   -6  -9  86 W6        30.58R WCI -19
MATTOON        SUNNY     -1  -8  72 NW7       30.59R WCI -14
$$

ILZ079-100>102-271500-
SOUTHWEST ILLINOIS

CITY           SKY/WX    TMP DP  RH WIND       PRES   REMARKS
BELLEVILLE     SUNNY      6  -1  70 NW10      30.66R WCI  -8
CAHOKIA*       SUNNY      7  -2  66 NW7       30.67R WCI  -5
$$

ILZ064>066-069>071-074>076-080>082-084>086-088>090-092>094-271500-
SOUTH-CENTRAL ILLINOIS

CITY           SKY/WX    TMP DP  RH WIND       PRES   REMARKS
CARBONDALE     SUNNY      9   0  67 N10       30.65R WCI  -5
MARION         SUNNY      9   1  72 N12       30.64R WCI  -6
MT. VERNON     SUNNY      7  -4  61 N3        30.64R
$$

ILZ067-068-072-073-078-083-087-091-271500-
SOUTHEAST ILLINOIS

CITY           SKY/WX    TMP DP  RH WIND       PRES   REMARKS
LAWRENCEVILLE  SUNNY     10   3  73 NW8       30.62R WCI  -2
$$

ABBREVIATIONS USED IN REMARKS
   TC - TEMPERATURE IN CELSIUS
  WCI - WIND CHILL INDEX
   HX - HEAT INDEX
  VSB - VISIBILITY
$$




USA.gov is the U.S. government's official web portal to all federal, state and local government web resources and services.